Location: Andrest
(43.3200°N, 0.0641°E)
Time: 15:21:46
(UTC+00:00)

CZ-4B R/B - Pass Details

Date: 01 December 2020
Orbit: 809 x 881 km, 99.1° (Epoch: 24 January)

Event Time Altitude Azimuth Distance (km) Brightness Sun altitude
Rises 17:41:57 0° 175° (S) 3,339 6.5 -13.6°
Reaches altitude 10° 17:44:20 10° 179° (S) 2,404 5.8 -14.0°
Maximum altitude 17:49:34 59° 258° (WSW) 935 3.8 -14.9°
Drops below altitude 10° 17:54:48 10° 338° (NNW) 2,404 5.6 -15.9°
Sets 17:57:11 0° 342° (NNW) 3,340 6.3 -16.3°
